AMC-21 (33275 NORAD) Tracking and Keplerian Element Data

This shows tracking and keplerian element data for the satellite.

Feedback or suggestion? Click here.




ElementValue
Catalog33275
NameAMC-21
Epoch Orbit6369
Epoch Day354.0251072
Epoch Year2025
RAAN82.511
Inclination2.4844
Eccentricity0.0001955
Argument of Perigee91.7859
Mean Anonmoly148.9675
Mean Motion0.99160041
Decay Rate1.02E-06
L11 33275U 08038B 25354.02510720 .00000102 00000+0 00000+0 0 9996
L22 33275 2.4844 82.5110 0001955 91.7859 148.9675 0.99160041 63694



Live tracking and technical data element details for AMC-21 (NORAD 33275). AMC-21 can be tracked NOW for your location showing map with azimuth and elevation plus other details from your city location.







IsCatalogInMostPopularTable: catalog: 33275, numindb: 377
Update: records affected: 1



GetName: 33275 AMC-21

Hit Count: updated at: Thu, 16 Apr 2026 05:44:47 GMT